Regional Weather Roundup
Issued by NWS

Home | Current Version | Previous Version | Graphics & Text | Print | Product List | Glossary On
Versions: 1 2 3 4 5 6 7 8 9 10 11 12 13 14 15 16 17 18 19 20 21 22 23 24 25 26 27 28 29 30 31 32 33 34 35 36 37 38 39 40 41 42 43 44 45 46 47 48 49 50
000
ASUS43 KMKX 262111
RWRWI

WISCONSIN REGIONAL WEATHER ROUNDUP
NATIONAL WEATHER SERVICE MILWAUKEE/SULLIVAN WI
400 PM CDT SUN APR 26 2015

NOTE: "FAIR" INDICATES FEW OR NO CLOUDS BELOW 12,000 FEET WITH NO
SIGNIFICANT WEATHER AND/OR OBSTRUCTIONS TO VISIBILITY.

WIZ001-002-006>008-014>016-023>028-262200-
NORTHWEST WISCONSIN

CITY           SKY/WX    TMP DP  RH WIND       PRES   REMARKS
SUPERIOR ARPT  SUNNY     47  29  48 NE8       30.17F
ASHLAND        SUNNY     51  26  37 E10       30.17F
HAYWARD        SUNNY     57  13  17 NE17      30.12R
SIREN          SUNNY     61  19  20 NE8       30.10F
CUMBERLAND     SUNNY     57  21  24 NE7       30.09F
RICE LAKE      SUNNY     60  24  24 N14       30.10F
CHETEK         SUNNY     61  27  28 NW8       30.08S
LADYSMITH      SUNNY     60  23  23 N14       30.09S
EAU CLAIRE     SUNNY     63  23  21 VRB7G17   30.06F
MENOMONIE      SUNNY     62  17  17 N3        30.07F
NEW RICHMOND   SUNNY     61  18  19 N8        30.09F
OSCEOLA        SUNNY     62  25  24 NW5       30.11F
$$

WIZ003>005-009-010-017-018-262200-
NORTH CENTRAL WISCONSIN

CITY           SKY/WX    TMP DP  RH WIND       PRES   REMARKS
MANITOWISH WTR SUNNY     51  26  38 N9G18     30.10R
ARBOR VITAE    SUNNY     57  25  29 N15G25    30.07S
WOODRUFF       SUNNY     57  25  29 N15G25    30.07S
RHINELANDER    SUNNY     57  22  25 N10       30.06S
EAGLE RIVER    SUNNY     54  22  29 N12G20    30.06S
LAND O LAKES   SUNNY     53  27  37 N12G18    30.09S
PHILLIPS       SUNNY     57  24  28 N10       30.07S
TOMAHAWK       SUNNY     58  20  23 N3G17     30.05F
MEDFORD        SUNNY     59  23  24 N12       30.04F
MERRILL        SUNNY     60  21  21 NE13G20   30.03F
$$

WIZ029-030-035-036-043>047-262200-
CENTRAL WISCONSIN

CITY           SKY/WX    TMP DP  RH WIND       PRES   REMARKS
WAUSAU         SUNNY     61  18  18 N12G18    30.01F
MOSINEE        SUNNY     61  19  20 N9G17     30.03F
MARSHFIELD     SUNNY     62  24  23 N9G18     30.04F
STEVENS POINT  SUNNY     59  19  21 N7G16     30.02F
WAUPACA        SUNNY     65  17  16 NE3       30.00F
WAUTOMA        SUNNY     62  19  19 N9G18     30.01F
WISC RAPIDS    SUNNY     62  19  19 N9G18     30.04F
CAMP DOUGLAS   SUNNY     63  23  22 VRB6      30.02F
$$

WIZ011>013-019>022-031-037>040-048>050-262200-
NORTHEAST WISCONSIN

CITY           SKY/WX    TMP DP  RH WIND       PRES   REMARKS
ANTIGO         SUNNY     58  26  28 N10       30.02S
SHAWANO        SUNNY     64  22  19 NE9       29.99F
OCONTO         SUNNY     52  30  43 E9G17     30.04S
STURGEON BAY   SUNNY     54  28  37 N12       30.05F
GREEN BAY      SUNNY     59  27  29 E12       30.02S
MANITOWOC      SUNNY     52  26  36 E12       30.03S
APPLETON       SUNNY     59  21  23 N13       30.01F
CLINTONVILLE   SUNNY     63  18  17 NW6       30.00S
OSHKOSH        SUNNY     57  24  28 VRB5      30.01F
$$

WIZ032>034-041-042-053>061-262200-
SOUTHWEST WISCONSIN

CITY           SKY/WX    TMP DP  RH WIND       PRES   REMARKS
LA CROSSE      SUNNY     63  23  21 W6        30.04F
SPARTA         SUNNY     63  21  20 N12       30.04F
VIROQUA        SUNNY     59  23  25 NW5       30.04F
BOSCOBEL       SUNNY     63  23  21 E6        30.03F
PRAIRIE DU CHI SUNNY     61  22  22 NW10G18   30.03F
PLATTEVILLE    SUNNY     59  28  31 N6        30.02F
$$

WIZ056-057-062-063-064-067-068-262200-
SOUTH CENTRAL WISCONSIN

CITY           SKY/WX    TMP DP  RH WIND       PRES   REMARKS
REEDSBURG      SUNNY     59  26  27 N6        30.02F
BARABOO/DELLS  SUNNY     60  21  22 N6        30.02F
LONE ROCK      SUNNY     60  27  28 NW7       30.03F
MINERAL POINT  SUNNY     59  23  25 NW7       30.03S
MADISON        MOSUNNY   59  27  29 N9        30.02F
MIDDLETON      SUNNY     60  21  22 NE7       30.02F
WATERTOWN      SUNNY     58  29  33 N8G22     30.01S
MONROE         SUNNY     57  30  35 N15G21    30.01F
JANESVILLE     SUNNY     61  25  25 N10G17    30.01F
$$

WIZ051-052-058>065-066-070>072-262200-
SOUTHEAST WISCONSIN

CITY           SKY/WX    TMP DP  RH WIND       PRES   REMARKS
MILWAUKEE      MOSUNNY   50  30  46 NE14      30.03S
WAUKESHA       MOSUNNY   54  28  37 E12G18    30.01F
MILWAUKEE/TIMM SUNNY     54  21  28 NE12G20   30.03S
RACINE         SUNNY     51  29  42 N14       30.03F
BURLINGTON     SUNNY     55  28  34 NE13      30.00S
KENOSHA        SUNNY     55  26  32 NE18      30.01F
FOND DU LAC    SUNNY     59  24  26 NE12      30.02F
SHEBOYGAN      SUNNY     52  28  39 E13       30.03S
WEST BEND      SUNNY     54  27  35 E13       30.01S
JUNEAU         SUNNY     57  27  31 NE10G16   30.02F
$$

LSZ147-162-262200-
LAKE SUPERIOR

STATION/POSITION TIME  TEMP    WIND        PRES    WAVE
                       AIR SEA DIR/SP/G            HT/PER
                 (UTC) (F)     (DEG/KT/KT) (MB)    (FT/S)
W MID LAKE BUOY  2050   36 35  220/  4/  4 1023.4F   1/ 3
DEVILS ISLAND    2100   37      80/  5/  6 1022.9F
PORT WING        2000   40      30/ 12/ 13 1021.7
SAXON HARBOR     2040   38      40/  8/  9 1022.0F
$$

LMZ867-665-643>646-262200-
LAKE MICHIGAN

STATION/POSITION TIME  TEMP    WIND        PRES    WAVE
                       AIR SEA DIR/SP/G            HT/PER
                 (UTC) (F)     (DEG/KT/KT) (MB)    (FT/S)
CHAMBERS ISLAND  2000   45      30/ 17/ 23 1017.3F
NORTHPORT PIER   2000   43     340/  9/ 13 1017.6F
SISTER BAY       2017   53      20/ 20/ 25   N/A
KEWAUNEE LAKESHO 2000   44      60/  3/  5 1016.8F
SHEBOYGAN LAKESH 2100   41      50/  6/  7 1017.7F
PORT WASHINGTON  2040   44      50/ 10/ 14 1017.9F
MILWAUKEE LAKESH 2000   40      40/ 12/ 13   N/A
KENOSHA   LAKESH 2100   42      30/ 13/ 15 1016.6F
$$

TC  - TEMPERATURE IN CELSIUS
VSB - VISIBILITY IN STATUTE MILES
WCI - WIND CHILL INDEX
HX  - HEAT INDEX



USA.gov is the U.S. government's official web portal to all federal, state and local government web resources and services.